Hourly Weather Barsuk

Today, 18 April, Sunday

Time Temperature Precipitation Wind Pressure Humidity
00:00 +8°C° 0 mm 4 mps 746 mmHg 87%
01:00 +7°C° 0 mm 4 mps 746 mmHg 88%
02:00 +7°C° 0 mm 5 mps 746 mmHg 88%
03:00 +6°C° 0 mm 4 mps 746 mmHg 88%
04:00 +6°C° 0 mm 4 mps 746 mmHg 88%
05:00 +5°C° 0 mm 4 mps 746 mmHg 88%
06:00 +6°C° 0 mm 5 mps 746 mmHg 83%
07:00 +7°C° 0 mm 5 mps 747 mmHg 78%
08:00 +7°C° 0 mm 6 mps 747 mmHg 73%
09:00 +8°C° 0 mm 6 mps 747 mmHg 70%
10:00 +9°C° 0 mm 6 mps 747 mmHg 67%
11:00 +11°C° 0 mm 6 mps 747 mmHg 64%
12:00 +10°C° 0 mm 5 mps 747 mmHg 66%
13:00 +10°C° 0 mm 5 mps 748 mmHg 68%
14:00 +10°C° 0 mm 4 mps 748 mmHg 70%
15:00 +10°C° 0 mm 4 mps 748 mmHg 72%
16:00 +8°C° 0 mm 4 mps 748 mmHg 74%
17:00 +9°C° 0 mm 3 mps 748 mmHg 76%
18:00 +8°C° 0 mm 3 mps 749 mmHg 79%
19:00 +8°C° 0 mm 2 mps 749 mmHg 83%
20:00 +8°C° 0 mm 1 mps 749 mmHg 86%
21:00 +7°C° 0 mm 1 mps 749 mmHg 88%
22:00 +6°C° 0 mm 2 mps 749 mmHg 90%
23:00 +5°C° 0 mm 2 mps 749 mmHg 92%

Tomorrow, 19 April, Monday

Time Temperature Precipitation Wind Pressure Humidity
00:00 +5°C° 0 mm 2 mps 749 mmHg 92%
01:00 +4°C° 0 mm 3 mps 749 mmHg 92%
02:00 +4°C° 0 mm 3 mps 749 mmHg 92%
03:00 +4°C° 0 mm 3 mps 749 mmHg 91%
04:00 +4°C° 0 mm 3 mps 749 mmHg 90%
05:00 +5°C° 0 mm 3 mps 749 mmHg 89%
06:00 +5°C° 0 mm 3 mps 749 mmHg 88%
07:00 +5°C° 0 mm 3 mps 749 mmHg 86%
08:00 +7°C° 0 mm 3 mps 749 mmHg 85%
09:00 +7°C° 0 mm 3 mps 749 mmHg 83%
10:00 +7°C° 0 mm 4 mps 749 mmHg 81%
11:00 +7°C° 0 mm 4 mps 749 mmHg 79%
12:00 +8°C° 0.1 mm 4 mps 749 mmHg 76%
13:00 +8°C° 0.1 mm 5 mps 749 mmHg 74%
14:00 +8°C° 0.1 mm 5 mps 749 mmHg 71%
15:00 +8°C° 0 mm 5 mps 749 mmHg 75%
16:00 +7°C° 0 mm 5 mps 749 mmHg 78%
17:00 +7°C° 0 mm 5 mps 749 mmHg 82%
18:00 +6°C° 0 mm 5 mps 749 mmHg 84%
19:00 +5°C° 0 mm 5 mps 749 mmHg 87%
20:00 +5°C° 0 mm 5 mps 749 mmHg 89%
21:00 +5°C° 0 mm 4 mps 749 mmHg 89%
22:00 +4°C° 0 mm 3 mps 748 mmHg 89%
23:00 +4°C° 0 mm 3 mps 748 mmHg 88%

Day after tomorrow, 20 April, Tuesday

Time Temperature Precipitation Wind Pressure Humidity
00:00 +4°C° 0 mm 3 mps 748 mmHg 88%
01:00 +4°C° 0 mm 4 mps 748 mmHg 88%
02:00 +3°C° 0 mm 4 mps 747 mmHg 88%
03:00 +3°C° 0 mm 4 mps 747 mmHg 89%
04:00 +3°C° 0 mm 4 mps 747 mmHg 91%
05:00 +1°C° 0 mm 4 mps 746 mmHg 93%
06:00 +1°C° 0.1 mm 4 mps 746 mmHg 93%
07:00 +1°C° 0.1 mm 4 mps 746 mmHg 93%
08:00 +1°C° 0.1 mm 4 mps 746 mmHg 93%
09:00 +1°C° 0.2 mm 4 mps 745 mmHg 94%
10:00 +1°C° 0.2 mm 4 mps 745 mmHg 95%
11:00 +1°C° 0.2 mm 4 mps 745 mmHg 97%
12:00 +1°C° 0 mm 4 mps 745 mmHg 96%
13:00 +3°C° 0 mm 4 mps 744 mmHg 95%
14:00 +3°C° 0 mm 4 mps 744 mmHg 94%
15:00 +3°C° 0 mm 4 mps 744 mmHg 94%
16:00 +3°C° 0 mm 4 mps 743 mmHg 95%
17:00 +3°C° 0 mm 4 mps 743 mmHg 96%
18:00 +3°C° 0.2 mm 4 mps 742 mmHg 96%
19:00 +3°C° 0.2 mm 4 mps 742 mmHg 96%
20:00 +2°C° 0.2 mm 5 mps 741 mmHg 96%
21:00 +2°C° 0.6 mm 5 mps 741 mmHg 96%
22:00 +2°C° 0.6 mm 5 mps 740 mmHg 96%
23:00 +2°C° 0.6 mm 5 mps 739 mmHg 96%

21 April, Wednesday

Time Temperature Precipitation Wind Pressure Humidity
00:00 +1°C° 0.5 mm 5 mps 738 mmHg 96%
01:00 +1°C° 0.5 mm 5 mps 738 mmHg 96%
02:00 +1°C° 0.5 mm 6 mps 737 mmHg 97%
03:00 +1°C° 1.1 mm 6 mps 736 mmHg 97%
04:00 +1°C° 1.1 mm 6 mps 736 mmHg 97%
05:00 -1°C° 1.1 mm 6 mps 735 mmHg 97%
06:00 -1°C° 1 mm 6 mps 735 mmHg 97%
07:00 -1°C° 1 mm 6 mps 735 mmHg 97%
08:00 -1°C° 1 mm 6 mps 735 mmHg 97%
09:00 -1°C° 0.5 mm 6 mps 735 mmHg 96%
10:00 +1°C° 0.5 mm 6 mps 735 mmHg 96%
11:00 +1°C° 0.5 mm 6 mps 735 mmHg 96%
12:00 +1°C° 0.5 mm 6 mps 736 mmHg 96%
13:00 +1°C° 0.5 mm 6 mps 736 mmHg 95%
14:00 +2°C° 0.5 mm 6 mps 737 mmHg 95%
15:00 +2°C° 0.2 mm 5 mps 737 mmHg 93%
16:00 +4°C° 0.2 mm 4 mps 738 mmHg 91%
17:00 +4°C° 0.2 mm 3 mps 738 mmHg 88%
18:00 +4°C° 0 mm 3 mps 739 mmHg 88%
19:00 +3°C° 0 mm 3 mps 739 mmHg 87%
20:00 +4°C° 0 mm 2 mps 740 mmHg 87%
21:00 +3°C° 0 mm 3 mps 740 mmHg 87%
22:00 +2°C° 0 mm 3 mps 741 mmHg 87%
23:00 +2°C° 0 mm 3 mps 741 mmHg 88%

22 April, Thursday

Time Temperature Precipitation Wind Pressure Humidity
00:00 +2°C° 0 mm 3 mps 741 mmHg 88%
01:00 +2°C° 0 mm 3 mps 742 mmHg 89%
02:00 +1°C° 0 mm 3 mps 742 mmHg 90%
03:00 +1°C° 0 mm 3 mps 742 mmHg 90%
04:00 +2°C° 0 mm 2 mps 743 mmHg 90%
05:00 +2°C° 0 mm 2 mps 743 mmHg 90%
06:00 +4°C° 0 mm 2 mps 743 mmHg 86%
07:00 +6°C° 0 mm 2 mps 744 mmHg 83%
08:00 +7°C° 0 mm 2 mps 744 mmHg 80%
09:00 +9°C° 0.1 mm 3 mps 744 mmHg 74%
10:00 +10°C° 0.1 mm 3 mps 745 mmHg 68%
11:00 +12°C° 0.1 mm 3 mps 745 mmHg 63%
12:00 +12°C° 0.2 mm 3 mps 745 mmHg 60%
13:00 +13°C° 0.2 mm 3 mps 745 mmHg 58%
14:00 +13°C° 0.2 mm 4 mps 745 mmHg 56%
15:00 +13°C° 0.3 mm 3 mps 746 mmHg 59%
16:00 +13°C° 0.3 mm 3 mps 746 mmHg 62%
17:00 +14°C° 0.3 mm 2 mps 746 mmHg 65%
18:00 +13°C° 0.1 mm 2 mps 746 mmHg 70%
19:00 +10°C° 0.1 mm 2 mps 746 mmHg 74%
20:00 +9°C° 0.1 mm 2 mps 747 mmHg 79%
21:00 +9°C° 0 mm 2 mps 747 mmHg 80%
22:00 +9°C° 0 mm 2 mps 747 mmHg 80%
23:00 +9°C° 0 mm 2 mps 748 mmHg 81%

23 April, Friday

Time Temperature Precipitation Wind Pressure Humidity
00:00 +9°C° 0 mm 1 mps 748 mmHg 83%
01:00 +8°C° 0 mm 1 mps 748 mmHg 85%
02:00 +8°C° 0 mm 1 mps 748 mmHg 88%
03:00 +8°C° 0 mm 1 mps 748 mmHg 89%
04:00 +6°C° 0 mm 2 mps 748 mmHg 90%
05:00 +6°C° 0 mm 2 mps 748 mmHg 91%
06:00 +7°C° 0 mm 2 mps 748 mmHg 87%
07:00 +9°C° 0 mm 3 mps 748 mmHg 83%
08:00 +10°C° 0 mm 3 mps 749 mmHg 79%
09:00 +12°C° 0.1 mm 4 mps 749 mmHg 74%
10:00 +13°C° 0.1 mm 4 mps 749 mmHg 69%
11:00 +14°C° 0.1 mm 4 mps 749 mmHg 65%
12:00 +15°C° 0.2 mm 4 mps 749 mmHg 62%
13:00 +17°C° 0.2 mm 4 mps 749 mmHg 58%
14:00 +17°C° 0.2 mm 4 mps 749 mmHg 55%
15:00 +17°C° 0.2 mm 3 mps 749 mmHg 57%
16:00 +17°C° 0.2 mm 2 mps 749 mmHg 59%
17:00 +17°C° 0.2 mm 2 mps 749 mmHg 62%
18:00 +15°C° 0.2 mm 2 mps 750 mmHg 66%
19:00 +13°C° 0.2 mm 2 mps 750 mmHg 71%
20:00 +12°C° 0.2 mm 2 mps 750 mmHg 76%
21:00 +10°C° 0 mm 2 mps 751 mmHg 77%
22:00 +10°C° 0 mm 2 mps 751 mmHg 78%
23:00 +9°C° 0 mm 2 mps 751 mmHg 80%
Show more